[[{"header":{"parameterUnit":"m.s-1","parameterCategory":1,"la1":30.2992,"la2":30.254,"lo1":-89.0895,"lo2":-89.0443,"dy":0.0025,"dx":0.0025,"nx":19,"ny":19,"refTime":"2026-04-26T21:00:00:Z","depth":0,"parameterNumber":2,"parameterNumberName":"U-component_of_WINDS"},"data":[0,0,0,0.0299,0.0297,0.0227,0.0227,0.0138,0.0138,0,0,0,0,0,0,0,0,0,0,0,0.0319,0.0318,0.0299,0.0297,0.0227,0.0227,0.0138,0.0138,0,0,0,0,0,0,0,0,0,0,0,0.0319,0.0318,0.0317,0.0297,0.0227,0.0227,0.0139,0.0191,0,0,0,0,0,0,0,0,0,0,0.0259,0.0276,0.0318,0.0317,0.0296,0.0227,0.0227,0.0194,0.0188,0.017,0,0.0153,0,0.0144,0.0132,0.0131,0,0,0,0.0298,0.0281,0.0263,0.0317,0.0296,0.0228,0.0259,0.0191,0.0184,0.0162,0.0151,0.0148,0.0142,0.0131,0.0131,0.0022,0.0022,0,0,0.0302,0.0306,0.0268,0.0259,0.0269,0.0261,0.0257,0.0187,0.0175,0.0151,0.0146,0.0141,0.013,0.013,0.0023,0.0022,0,0,0,0.0312,0.0308,0.0292,0.0263,0.025,0.0259,0.0254,0.0179,0.0173,0.0145,0.014,0.013,0.0129,0.0023,0.0023,-0.0,0,0,0,0.0315,0.0315,0.0294,0.0295,0.0251,0.0213,0.0248,0.0178,0.017,0.014,0.013,0.0128,0.0024,0.0023,0.0001,-0.0012,0,0,0,0.0323,0.0316,0.0305,0.0296,0.0266,0.0214,0.0204,0.0176,0.0166,0.0131,0.0128,0.0024,0.0023,0.0003,-0.001,-0.004,0,0,0,0.0334,0.0285,0.0305,0.0249,0.0266,0.0201,0.0205,0.0155,0.0123,0.0129,0.0024,0.0023,0.0004,-0.0008,-0.0038,-0.0065,-0.0076,0,0,0.0275,0.0278,0.0245,0.0261,0.0192,0.0211,0.0139,0.0105,0.0099,0.0049,0.0046,0.0001,-0.0009,-0.0039,-0.0136,-0.0144,0,0,0,0.0228,0.0204,0.0185,0.0154,0.0127,0.0103,0.008,0.0068,0.0025,0.0073,-0.0018,-0.0024,-0.0042,-0.0055,-0.0062,-0.0077,0.0017,0.0017,0.0017,0.0148,0.0143,0.0088,0.0074,0.0045,0.0022,-0.0002,-0.0022,-0.002,-0.0041,-0.0056,-0.0114,-0.0129,-0.0135,-0.0151,-0.007,-0.007,-0.007,-0.007,0.0061,0.0026,0.0033,-0.0019,-0.0024,-0.0066,-0.0089,-0.0085,-0.0125,-0.0103,-0.0119,-0.0096,-0.0144,-0.0158,-0.0072,-0.0072,-0.0072,-0.0071,-0.0071,0.0007,-0.001,-0.0023,-0.0068,-0.0101,-0.0112,-0.015,-0.0153,-0.0156,-0.0172,-0.0188,-0.0188,-0.0188,-0.0179,-0.0179,-0.0179,-0.0179,-0.018,-0.018,-0.0043,-0.0057,-0.009,-0.012,-0.014,-0.0166,-0.0187,-0.0206,-0.0227,-0.0226,-0.0226,-0.0221,-0.0147,-0.0129,-0.0183,-0.0182,-0.0182,-0.0182,-0.0181,-0.0132,-0.0112,-0.0162,-0.0181,-0.0216,-0.0248,-0.0251,-0.0288,-0.0304,-0.0323,-0.0313,-0.0258,-0.0255,-0.0249,-0.0234,-0.0312,-0.0312,-0.0312,-0.0312,-0.0177,-0.0175,-0.0226,-0.0257,-0.0287,-0.0293,-0.0348,-0.0364,-0.0377,-0.0387,-0.0376,-0.0356,-0.035,-0.035,-0.0342,-0.0328,-0.0428,-0.0428,-0.0429,-0.0232,-0.0233,-0.028,-0.0293,-0.032,-0.0343,-0.0394,-0.0429,-0.0439,-0.0433,-0.0395,-0.039,-0.0357,-0.0347,-0.0342,-0.0329,-0.0304,0,0]},{"header":{"parameterUnit":"m.s-1","parameterCategory":1,"la1":30.2992,"la2":30.254,"lo1":-89.0895,"lo2":-89.0443,"dy":0.0025,"dx":0.0025,"nx":19,"ny":19,"refTime":"2026-04-26T21:00:00:Z","depth":0,"parameterNumber":3,"parameterNumberName":"V-component_of_WINDS"},"data":[0,0,0,0.1457,0.1457,0.1486,0.1486,0.1519,0.1519,0,0,0,0,0,0,0,0,0,0,0,0.1446,0.1446,0.1457,0.1458,0.1486,0.1486,0.1519,0.1519,0,0,0,0,0,0,0,0,0,0,0,0.1446,0.1446,0.1446,0.1458,0.1486,0.1486,0.1519,0.1499,0,0,0,0,0,0,0,0,0,0,0.1471,0.1459,0.1446,0.1446,0.1458,0.1486,0.1486,0.1498,0.15,0.1504,0,0.1508,0,0.1514,0.1521,0.1521,0,0,0,0.1459,0.1457,0.1467,0.1447,0.1458,0.1486,0.1474,0.1499,0.1501,0.1507,0.1508,0.151,0.1515,0.1521,0.1521,0.1543,0.1543,0,0,0.1458,0.145,0.1466,0.1469,0.1464,0.1473,0.1475,0.15,0.1501,0.1508,0.151,0.1515,0.1521,0.1522,0.1543,0.1543,0,0,0,0.1452,0.1449,0.1458,0.1467,0.1473,0.1474,0.1476,0.15,0.1504,0.1511,0.1515,0.1522,0.1522,0.1543,0.1543,0.1537,0,0,0,0.1451,0.1446,0.1457,0.1453,0.1472,0.1487,0.1474,0.1502,0.1505,0.1515,0.1522,0.1522,0.1542,0.1543,0.1537,0.1535,0,0,0,0.1445,0.1445,0.1448,0.1453,0.1465,0.1487,0.1492,0.1503,0.1508,0.1521,0.1522,0.1542,0.1543,0.1537,0.1535,0.1539,0,0,0,0.1436,0.1442,0.1448,0.1457,0.1464,0.1483,0.1492,0.1506,0.1516,0.1522,0.1542,0.1543,0.1537,0.1535,0.1539,0.154,0.154,0,0,0.144,0.1443,0.1448,0.1454,0.147,0.1479,0.1494,0.151,0.1518,0.1534,0.1535,0.1537,0.1535,0.1539,0.1542,0.1542,0,0,0,0.1447,0.1451,0.1456,0.1467,0.148,0.1491,0.1506,0.1513,0.1526,0.1525,0.1539,0.1538,0.1541,0.1542,0.1542,0.1544,0.1543,0.1543,0.1543,0.144,0.1451,0.1461,0.1474,0.1484,0.15,0.1509,0.152,0.1527,0.1531,0.1535,0.1536,0.1537,0.1537,0.154,0.1537,0.1537,0.1537,0.1537,0.1446,0.1454,0.1464,0.1477,0.1487,0.1499,0.1514,0.1519,0.1531,0.1533,0.1536,0.1538,0.1537,0.1539,0.1537,0.1537,0.1537,0.1537,0.1537,0.1444,0.1449,0.1457,0.1473,0.1484,0.1498,0.1509,0.1518,0.1527,0.1529,0.1535,0.1536,0.1537,0.1532,0.1532,0.1532,0.1532,0.1532,0.1532,0.1437,0.1447,0.1455,0.147,0.1478,0.1489,0.1506,0.1514,0.1525,0.1531,0.1531,0.1538,0.1535,0.1534,0.1532,0.1532,0.1532,0.1532,0.1532,0.144,0.1441,0.1454,0.1462,0.148,0.1491,0.1503,0.1518,0.1526,0.1532,0.1538,0.1534,0.1538,0.1538,0.1537,0.1536,0.1536,0.1536,0.1536,0.1437,0.144,0.1456,0.1468,0.1481,0.1493,0.1508,0.1521,0.1534,0.154,0.1541,0.1541,0.1541,0.1544,0.1544,0.1544,0.1544,0.1545,0.1545,0.1439,0.1444,0.1454,0.1468,0.1483,0.1496,0.151,0.1524,0.1539,0.1545,0.1544,0.1544,0.1544,0.1543,0.1549,0.1549,0.1548,0,0]}]]